This is the latest recevied weather packets stored in our database for station/object NorthRyde. If no packets are shown the sender has not sent any weather packets the latest 10 day(s).
| Time | Temp. | Humidity | Pressure | Rain* | Wind** | Luminosity | Snow |
|---|---|---|---|---|---|---|---|
| 1778362458 | 10.56° C | 93% | 1029.4 hPa | 0 mm | - | 32 W/m² | - |
| 1778362397 | 10° C | 93% | 1029.4 hPa | 0 mm | - | 32 W/m² | - |
| 1778362348 | 10° C | 92% | 1029.4 hPa | 0 mm | - | 30 W/m² | - |
| 1778362326 | 10° C | 92% | 1029.3 hPa | 0 mm | - | 30 W/m² | - |
| 1778362305 | 10° C | 92% | 1029.4 hPa | 0 mm | - | 28 W/m² | - |
| 1778362282 | 10° C | 92% | 1029.5 hPa | 0 mm | - | 28 W/m² | - |
| 1778362090 | 10° C | 92% | 1029.3 hPa | 0 mm | - | 28 W/m² | - |
| 1778362022 | 10° C | 92% | 1029.3 hPa | 0 mm | - | 28 W/m² | - |
| 1778361964 | 10° C | 92% | 1029.3 hPa | 0 mm | - | 26 W/m² | - |
| 1778361904 | 10° C | 92% | 1029.3 hPa | 0 mm | - | 28 W/m² | - |
| 1778361842 | 10° C | 92% | 1029.3 hPa | 0 mm | - | 32 W/m² | - |
| 1778361784 | 10° C | 92% | 1029.3 hPa | 0 mm | - | 32 W/m² | - |
| 1778361720 | 10° C | 92% | 1029.1 hPa | 0 mm | - | 28 W/m² | - |
| 1778361662 | 10° C | 92% | 1029.2 hPa | 0 mm | - | 26 W/m² | - |
| 1778361602 | 10° C | 92% | 1029 hPa | 0 mm | - | 28 W/m² | - |
| 1778361539 | 10° C | 92% | 1029.1 hPa | 0 mm | - | 28 W/m² | - |
| 1778361479 | 10° C | 92% | 1029.1 hPa | 0 mm | - | 28 W/m² | - |
| 1778361414 | 10° C | 92% | 1029.1 hPa | 0 mm | - | 28 W/m² | - |
| 1778361356 | 10° C | 92% | 1029 hPa | 0 mm | - | 26 W/m² | - |
| 1778361294 | 10° C | 92% | 1029.1 hPa | 0 mm | - | 25 W/m² | - |
| 1778361232 | 10° C | 92% | 1029.2 hPa | 0 mm | - | 21 W/m² | - |
| 1778361174 | 10° C | 92% | 1029.1 hPa | 0 mm | - | 21 W/m² | - |
| 1778361107 | 10° C | 92% | 1028.9 hPa | 0 mm | - | 19 W/m² | - |
| 1778361046 | 10° C | 92% | 1029 hPa | 0 mm | - | 19 W/m² | - |
| 1778360981 | 10° C | 92% | 1029 hPa | 0 mm | - | 19 W/m² | - |
* Rain latest hour (hover to see other rain measurements)
** Current wind speed in m/s (hover to see current wind gust speed)